Skip Page Navigation
NASA JPL Caltech
NASA Logo - Jet Propulsion Laboratory + View the NASA Portal
+ Center for Near-Earth Object Studies
JPL Home Earth Solar System Stars & Galaxies Technology
JPL Solar System Dynamics
BODIES ORBITS EPHEMERIDES TOOLS PHYSICAL DATA DISCOVERY FAQ SITE MAP
JPL Small-Body Database Browser
Search: [ help ]  
(2000 KA)
Classification: Apollo [NEO, PHA]          SPK-ID: 3035252
Ephemeris | Orbit Diagram | Orbital Elements | Mission Design | Physical Parameters | Close-Approach Data ]

[ hide orbit diagram ]

For accurate long-term ephemerides, please instead use our Horizons system.This orbit viewer was implemented using two-body methods, and hence should not be used for determining accurate long-term trajectories (over several years or decades) or planetary encounter circumstances.


[ revert to old Java-based viewer ]

Orbital Elements at Epoch 2459000.5 (2020-May-31.0) TDB
Reference: JPL 50 (heliocentric ecliptic J2000)
 Element Value Uncertainty (1-sigma)   Units 
e .4620360681084673 7.8845e-09  
a 1.332218230299507 1.52e-09 au
q .7166853573095023 1.0885e-08 au
i 6.731543039103205 6.2024e-06 deg
node 62.49949705728473 9.257e-06 deg
peri 83.19534252310866 8.9389e-06 deg
M 48.24563933994931 5.4942e-07 deg
tp 2458925.230843263136
(2020-Mar-16.73084326)
8.4003e-07 TDB
period 561.6444676862967
1.54
9.612e-07
2.632e-09
d
yr
n .6409748884076536 1.097e-09 deg/d
Q 1.947751103289512 2.2223e-09 au
  Orbit Determination Parameters
   # obs. used (total)      454  
   # delay obs. used      2  
   # Doppler obs. used      2  
   data-arc span      7335 days (20.08 yr)  
   first obs. used      2000-05-22  
   last obs. used      2020-06-21  
   planetary ephem.      DE431  
   SB-pert. ephem.      SB431-N16  
   condition code      0  
   norm. resid. RMS      .32662  
   source      ORB  
   producer      Otto Matic  
   solution date      2020-Jun-23 14:11:07  

Additional Information
 Earth MOID = .00182788 au 
 Jupiter MOID = 3.0853 au 
 T_jup = 4.797 
[ show covariance matrix ]

Ephemeris | Orbit Diagram | Orbital Elements | Mission Design | Physical Parameters | Close-Approach Data ]

Physical Parameter Table
Parameter Symbol Value Units Sigma Reference Notes
absolute magnitude H 21.7   n/a MPO278178  

[ hide close-approach data ]
Close-Approach Data   ...sorted by Date/Time (TDB)
Date/Time (TDB) Time Uncertainty
(days_HH:MM)
Body Nominal Distance (au) Minimum Distance (au) Maximum Distance (au) V-relative (km/s) V-infinity (km/s) JD (TDB) Time Uncertainty (minutes) Semi-major axis (km) Semi-minor axis (km) range-LOV angle (deg) N-sigma BP Orbit Ref. Reference Modified
1900-May-16 08:18 < 00:01 Earth 0.0879351109405019 0.0879348923797226 0.0879353295013361 15.9376127846918 15.9357114758162 2415155.845661216 0.0180968190721257 11.4691086871057 1.43309041471352 -18.300326508417 2828716.82711733 T 50 CATAB v2.0f-lin.ifort 2020-Jun-23 14:11:10 2020-Jun-23 14:11
1910-Nov-06 17:09 < 00:01 Earth 0.345507052769173 0.34550687345506 0.345507232083286 23.7617951208225 23.7614705726569 2418982.214319676 0.0179641543319035 8.94161416309424 2.64958144605576 0.208545797375399 5348021.71063463 T 50 CATAB v2.0f-lin.ifort 2020-Jun-23 14:11:10 2020-Jun-23 14:11
1913-Dec-06 14:17 < 00:01 Earth 0.133086476877391 0.133086311642326 0.133086642112464 9.84638879649756 9.8443552865733 2420108.095388280 0.044923528452576 8.38115294169637 3.257613514452 -11.4116862458032 3398293.77537896 T 50 CATAB v2.0f-lin.ifort 2020-Jun-23 14:11:10 2020-Jun-23 14:11
1917-Mar-05 15:14 < 00:01 Earth 0.280658575247502 0.280658465533598 0.280658684961485 11.9035105759624 11.9027129972972 2421293.134724931 0.0521644815389737 10.9169112717667 3.51482447358083 -66.0703984594003 7837105.15792263 T 50 CATAB v2.0f-lin.ifort 2020-Jun-23 14:11:10 2020-Jun-23 14:11
1917-May-19 09:18 < 00:01 Earth 0.407607868543889 0.40760766052957 0.407608076558197 6.16352009638277 6.16245943110666 2421367.887259083 0.102826777690022 20.5285810588988 10.3585401465965 -89.2690852729373 1658817.69881758 T 50 CATAB v2.0f-lin.ifort 2020-Jun-23 14:11:10 2020-Jun-23 14:11
1920-May-16 04:46 < 00:01 Earth 0.0819616878803865 0.0819614694489256 0.0819619063119173 15.7674301757909 15.765368269403 2422460.698675196 0.018409293866984 11.5532400476822 1.31541142424135 -19.6128029551611 3025573.86101821 T 50 CATAB v2.0f-lin.ifort 2020-Jun-23 14:11:10 2020-Jun-23 14:11
1922-Dec-27 10:44 < 00:01 Mars 0.0966867017496946 0.096686466963947 0.096686936535541 12.9321950036701 12.9319660376469 2423415.947111873 0.0192310120688042 12.7699982869783 3.48484520153788 24.5225366993782 2013200.92786036 T 50 CATAB v2.0f-lin.ifort 2020-Jun-23 14:11:10 2020-Jun-23 14:11
1930-Nov-06 09:40 < 00:01 Earth 0.354807545923752 0.354807463963803 0.3548076278837 24.0415802210146 24.041267858205 2426286.902541301 0.0128482683589131 4.08718257354404 2.73306303854535 -0.79919730476615 12009229.2687659 T 50 CATAB v2.0f-lin.ifort 2020-Jun-23 14:11:10 2020-Jun-23 14:11
1933-Dec-05 08:20 < 00:01 Earth 0.122824744473166 0.122824624771647 0.122824864174685 10.1019711983582 10.0998235334099 2427411.847100516 0.0286764948690769 5.98329835205518 3.30953010439409 -4.63238721363051 3684909.81169599 T 50 CATAB v2.0f-lin.ifort 2020-Jun-23 14:11:10 2020-Jun-23 14:11
1937-Mar-03 11:42 < 00:01 Earth 0.282905957630712 0.282905856133733 0.282906059127788 12.0209322724367 12.020148759328 2428595.987459983 0.0391991696712328 11.0461108267876 2.44149287615477 -65.6995030514676 11256978.8162858 T 50 CATAB v2.0f-lin.ifort 2020-Jun-23 14:11:10 2020-Jun-23 14:11
1937-May-22 12:05 < 00:01 Earth 0.419375007044817 0.419374858577801 0.419375155511856 6.5466428478067 6.54567228564186 2428676.003373636 0.0540671612516233 20.0918576726161 7.36006055244447 87.6843352088215 3334355.6088457 T 50 CATAB v2.0f-lin.ifort 2020-Jun-23 14:11:10 2020-Jun-23 14:11
1939-Nov-30 12:48 < 00:01 Mars 0.0884635300020229 0.0884632826752696 0.0884637773287763 13.5517748057827 13.5515359973975 2429598.033501241 0.0169390173406221 12.335830095884 9.29250741397822 1.80761544013148 1070162.13048986 T 50 CATAB v2.0f-lin.ifort 2020-Jun-23 14:11:10 2020-Jun-23 14:11
1940-May-15 14:49 < 00:01 Earth 0.0695044423172268 0.069504262150396 0.0695046224841248 15.393947456044 15.3914569653334 2429765.117442492 0.0159795310733851 9.60913774607771 1.24986403188678 -20.9705023412355 2892941.89355122 T 50 CATAB v2.0f-lin.ifort 2020-Jun-23 14:11:10 2020-Jun-23 14:11
1950-Nov-05 18:42 < 00:01 Earth 0.372349270612515 0.372349030498149 0.372349510726881 24.5798708421658 24.5795797135974 2433591.279065002 0.0117011043950152 11.9932612541567 2.8418114948298 3.39322543844315 4482979.22969397 T 50 CATAB v2.0f-lin.ifort 2020-Jun-23 14:11:10 2020-Jun-23 14:11
1953-Dec-02 22:34 < 00:01 Earth 0.101800690580534 0.101800436016153 0.101800945144916 10.6413926483227 10.6389327714839 2434714.440151639 0.0326019732748128 12.7046131349196 2.98944425140702 2.2400754829237 1364146.15031328 T 50 CATAB v2.0f-lin.ifort 2020-Jun-23 14:11:10 2020-Jun-23 14:11
1956-Nov-02 15:02 < 00:01 Mars 0.0935291457469803 0.093528908396451 0.0935293830975095 14.1432044169815 14.1429879883449 2435780.126542375 0.0141128199984483 12.5835946857044 11.8320087303643 -86.048589966579 1174366.76818264 T 50 CATAB v2.0f-lin.ifort 2020-Jun-23 14:11:10 2020-Jun-23 14:11
1957-Feb-28 09:08 < 00:01 Earth 0.285557599573701 0.285557505480375 0.285557693667157 12.155184530275 12.1544168669513 2435897.880640674 0.039970125190659 11.2410066982527 0.967141663823214 -65.7975912085826 29334097.0430881 T 50 CATAB v2.0f-lin.ifort 2020-Jun-23 14:11:10 2020-Jun-23 14:11
1957-May-26 10:36 < 00:01 Earth 0.436049602384024 0.436049483012581 0.436049721755467 7.04836195838593 7.04749496661644 2435984.941587095 0.0410234579500743 20.0116974815069 5.9012623541661 87.7121520794734 5572484.67263273 T 50 CATAB v2.0f-lin.ifort 2020-Jun-23 14:11:10 2020-Jun-23 14:11
1960-May-14 10:31 < 00:01 Earth 0.0484038731816719 0.0484037587828216 0.0484039875805909 14.7061054949915 14.7023618914796 2437068.938372744 0.0120411130585686 6.42417147161267 1.07708867483582 -27.8122945780626 3022911.34381137 T 50 CATAB v2.0f-lin.ifort 2020-Jun-23 14:11:10 2020-Jun-23 14:11
1970-Nov-05 12:03 < 00:01 Earth 0.383809297615889 0.383809134735563 0.383809460496215 24.8835294414411 24.8832504522869 2440896.001977597 0.00985932376459163 8.1228601269888 2.9453456770651 0.835290236115933 6633307.53858064 T 50 CATAB v2.0f-lin.ifort 2020-Jun-23 14:11:10 2020-Jun-23 14:11
1973-Dec-02 08:32 < 00:01 Earth 0.0944549450414515 0.0944547586494023 0.0944551314335007 10.8320508206457 10.8294462917286 2442018.855461453 0.0269416970498679 9.29836470783137 3.13041368533633 -1.48541088728332 1721479.17016626 T 50 CATAB v2.0f-lin.ifort 2020-Jun-23 14:11:10 2020-Jun-23 14:11
1977-Feb-27 15:12 < 00:01 Earth 0.285691632591751 0.285691530511834 0.285691734671782 12.1887711229494 12.1880059342525 2443202.133397622 0.0503717959186833 11.291572746521 2.60585900910574 -66.5475473263378 11039595.4181204 T 50 CATAB v2.0f-lin.ifort 2020-Jun-23 14:11:10 2020-Jun-23 14:11
1977-May-27 04:13 < 00:01 Earth 0.440137276205521 0.44013709353621 0.440137458874832 7.10822176999737 7.10737006488203 2443290.675735756 0.0502768326660678 20.1597989365385 9.08850559454379 88.2177760852319 3542629.42793567 T 50 CATAB v2.0f-lin.ifort 2020-Jun-23 14:11:10 2020-Jun-23 14:11
1980-May-14 10:27 < 00:01 Earth 0.0449238294420108 0.0449236052538406 0.0449240536306356 14.6064239716339 14.6023627932637 2444373.935744949 0.0218985945618633 13.2736136459645 0.985087230866985 -32.7305732939052 3414142.3071233 T 50 CATAB v2.0f-lin.ifort 2020-Jun-23 14:11:10 2020-Jun-23 14:11
1990-Nov-05 11:09 < 00:01 Earth 0.38813886888964 0.388138816611547 0.388138921167732 25.0235145723413 25.0232402385567 2448200.964689963 0.0119098586321498 3.19904150847566 2.35557625223801 -58.9414960361273 20904246.2716484 T 50 CATAB v2.0f-lin.ifort 2020-Jun-23 14:11:10 2020-Jun-23 14:11
